sat.trackr.live / text

‹ back to catalog

QPS-SAR-9 (SUSANOO-I)

NORAD 63205 · 2025-050A

PAYLOAD ACTIVE UNKNOWN

§ Identity

Operator
Country
JPN
Launch date
2025-03-15
Launch site
RLLB
Launch vehicle
Mass (kg)
RCS (m²)

External: N2YO · Heavens-Above · Gunter

§ Orbital elements

Epoch: 2026-05-25T04:37:15.210624Z

Period
95.81 min
Inclination
42.0186°
Eccentricity
0.0004168
Mean motion
15.02901556 rev/d
Perigee alt
555.1 km
Apogee alt
560.8 km
Semi-major
6,936.1 km
B*
3.2673e-4
RAAN
229.2816°
Arg perigee
343.3011°
Mean anomaly
16.7678°
Rev number
6,550

§ Raw data

QPS-SAR-9 (SUSANOO-I)1 63205U 25050A   26145.19253716  .00004273  00000+0  32673-3 0  99992 63205  42.0186 229.2816 0004168 343.3011  16.7678 15.02901556 65508

JSON: /api/v1/satellites/63205 · /tle

For live sub-satellite position, see the globe view (requires WebGL).

§ Visibility from observer

Set your observer location to see the next 7 days of passes ≥ 10°. The values pass through the URL so the page stays shareable.

No JS? Fill the form by hand. The geolocation button needs JavaScript.